Weather History for Emporia, VA

Change the Weather History Date:

Saturday, July 27, 2013

  Actual Average Record
Temperature  
Mean Temperature 72 °F -  
Max Temperature 86 °F 88 °F 98 °F (1987)
Min Temperature 59 °F 66 °F 56 °F (1983)
Cooling Degree Days 8    
Growing Degree Days 22 (Base 50)    
Moisture  
Dew Point 66 °F    
Average Humidity 83    
Maximum Humidity 100    
Minimum Humidity 48    
Precipitation  
Precipitation 0.00 in - - ()
Sea Level Pressure  
Sea Level Pressure 30.03 in    
Wind  
Wind Speed 2 mph (ESE)    
Max Wind Speed 12 mph    
Max Gust Speed -    
Visibility 8 miles    
Events Fog , Rain    
Averages and records for this station are not official NWS values.
T = Trace of Precipitation, MM = Missing Value Source: NWS Daily Summary

Daily Weather History Graph

Daily Weather History Graph

Search for Another Location

Airport:

Trip Planner

Search our weather history database for the weather conditions in past years. The results will help you decide how hot, cold, wet, or windy it might be!

Date:

Astronomy

Jul. 27, 2013 Rise Set
Actual Time 6:12 AM EDT 8:20 PM EDT
Civil Twilight 5:43 AM EDT 8:49 PM EDT
Nautical Twilight 5:07 AM EDT 9:24 PM EDT
Astronomical Twilight 4:29 AM EDT 10:02 PM EDT
Moon 11:18 PM EDT (7/27) 11:39 AM EDT (7/27)
Length of Visible Light 15h 06m
Length of Day
14h 08m
Waning Gibbous, 71% of the Moon is Illuminated
Jul 27
Waning Gibbous
Jul 29
Last Quarter
Aug 6
New
Aug 14
First Quarter
Aug 20
Full

Hourly Weather History & Observations

Time (EDT) Temp. Heat Index Dew Point Humidity Pressure Visibility Wind Dir Wind Speed Gust Speed Precip Events Conditions
12:15 AM 62.6 °F - 62.6 °F 100% 30.09 in 0.5 mi Calm Calm - N/A Fog Fog
12:35 AM 62.6 °F - 62.6 °F 100% 30.09 in - Calm Calm - N/A   Unknown
12:55 AM 60.8 °F - 60.8 °F 100% 30.09 in 1.0 mi Calm Calm - N/A   Mist
1:15 AM 60.8 °F - 60.8 °F 100% 30.08 in 2.5 mi Calm Calm - N/A   Clear
1:35 AM 62.6 °F - 62.6 °F 100% 30.08 in 7.0 mi Calm Calm - N/A   Clear
1:55 AM 62.6 °F - 62.6 °F 100% 30.08 in 10.0 mi Calm Calm - N/A   Clear
2:15 AM 62.6 °F - 62.6 °F 100% 30.07 in 7.0 mi ESE 3.5 mph - N/A   Clear
2:35 AM 64.4 °F - 64.4 °F 100% 30.07 in 7.0 mi ESE 3.5 mph - N/A   Clear
2:55 AM 64.4 °F - 64.4 °F 100% 30.07 in 7.0 mi Calm Calm - N/A   Clear
3:15 AM 62.6 °F - 62.6 °F 100% 30.07 in 7.0 mi ESE 3.5 mph - N/A   Clear
3:35 AM 62.6 °F - 62.6 °F 100% 30.07 in 7.0 mi Calm Calm - N/A   Clear
3:55 AM 62.6 °F - 62.6 °F 100% 30.06 in 5.0 mi Calm Calm - N/A   Clear
4:15 AM 62.6 °F - 62.6 °F 100% 30.06 in 5.0 mi Calm Calm - N/A   Clear
4:35 AM 62.6 °F - 62.6 °F 100% 30.06 in 5.0 mi Calm Calm - N/A   Clear
4:55 AM 62.6 °F - 62.6 °F 100% 30.06 in 1.5 mi Calm Calm - N/A   Mist
5:15 AM 60.8 °F - 60.8 °F 100% 30.06 in 1.0 mi Calm Calm - N/A   Mist
5:35 AM 59.0 °F - 59.0 °F 100% 30.06 in 1.2 mi Calm Calm - N/A   Mist
5:55 AM 60.8 °F - 60.8 °F 100% 30.06 in 7.0 mi Calm Calm - N/A   Clear
6:15 AM 60.8 °F - 60.8 °F 100% 30.07 in 4.0 mi Calm Calm - N/A   Scattered Clouds
6:35 AM 62.6 °F - 62.6 °F 100% 30.07 in 2.5 mi Calm Calm - N/A   Overcast
6:55 AM 64.4 °F - 64.4 °F 100% 30.06 in 4.0 mi East 3.5 mph - N/A   Scattered Clouds
7:15 AM 64.4 °F - 64.4 °F 100% 30.07 in 4.0 mi Calm Calm - N/A   Clear
7:35 AM 66.2 °F - 66.2 °F 100% 30.07 in 5.0 mi Calm Calm - N/A   Clear
7:55 AM 68.0 °F - 68.0 °F 100% 30.07 in 5.0 mi East 3.5 mph - N/A   Clear
8:15 AM 69.8 °F - 69.8 °F 100% 30.08 in 7.0 mi Calm Calm - N/A   Clear
8:35 AM 69.8 °F - 69.8 °F 100% 30.08 in 10.0 mi SE 4.6 mph - N/A   Scattered Clouds
8:55 AM 71.6 °F - 71.6 °F 100% 30.08 in 10.0 mi Calm Calm - N/A   Scattered Clouds
9:15 AM 73.4 °F - 71.6 °F 94% 30.08 in 10.0 mi South 3.5 mph - N/A   Scattered Clouds
9:35 AM 73.4 °F - 69.8 °F 88% 30.08 in - South 3.5 mph - N/A   Unknown
9:55 AM 73.4 °F - 68.0 °F 83% 30.07 in 10.0 mi South 3.5 mph - N/A   Clear
10:15 AM 77.0 °F - 68.0 °F 74% 30.07 in 10.0 mi SSE 4.6 mph - N/A   Clear
10:35 AM 78.8 °F - 68.0 °F 69% 30.07 in - ESE 6.9 mph - N/A   Clear
10:55 AM 78.8 °F - 68.0 °F 69% 30.07 in 10.0 mi SE 6.9 mph - N/A   Clear
11:15 AM 78.8 °F - 68.0 °F 69% 30.07 in - ESE 3.5 mph - N/A   Clear
11:35 AM 78.8 °F - 68.0 °F 69% 30.07 in 10.0 mi SSE 3.5 mph - N/A   Clear
11:55 AM 78.8 °F - 68.0 °F 69% 30.06 in 10.0 mi SE 5.8 mph - N/A   Clear
12:15 PM 78.8 °F - 68.0 °F 69% 30.06 in - SSE 5.8 mph - N/A   Clear
12:35 PM 80.6 °F 83.2 °F 68.0 °F 65% 30.05 in 10.0 mi ESE 4.6 mph - N/A   Clear
12:55 PM 80.6 °F 83.2 °F 68.0 °F 65% 30.05 in 10.0 mi SE 8.1 mph - N/A   Scattered Clouds
1:15 PM 80.6 °F 82.7 °F 66.2 °F 61% 30.04 in 10.0 mi South 4.6 mph - N/A   Scattered Clouds
1:35 PM 82.4 °F 83.9 °F 64.4 °F 54% 30.03 in 10.0 mi ESE 5.8 mph - N/A   Clear
1:55 PM 82.4 °F 84.6 °F 66.2 °F 58% 30.02 in 10.0 mi ESE 8.1 mph - N/A   Scattered Clouds
2:15 PM 80.6 °F 82.3 °F 64.4 °F 58% 30.01 in 10.0 mi SE 3.5 mph - N/A   Scattered Clouds
2:35 PM 82.4 °F 83.9 °F 64.4 °F 54% 30.00 in 10.0 mi ESE 3.5 mph - N/A   Scattered Clouds
2:55 PM 84.2 °F 86.6 °F 66.2 °F 55% 29.99 in 10.0 mi East 4.6 mph - N/A   Clear
3:15 PM 84.2 °F 86.6 °F 66.2 °F 55% 29.99 in 10.0 mi East 6.9 mph - N/A   Scattered Clouds
3:35 PM 86.0 °F 87.3 °F 64.4 °F 48% 29.99 in 10.0 mi ESE 5.8 mph - N/A   Scattered Clouds
3:55 PM 86.0 °F 87.3 °F 64.4 °F 48% 29.99 in 10.0 mi ESE 6.9 mph - N/A   Scattered Clouds
4:15 PM 84.2 °F 86.6 °F 66.2 °F 55% 29.99 in 10.0 mi East 5.8 mph - N/A   Mostly Cloudy
4:35 PM 82.4 °F 85.4 °F 68.0 °F 62% 29.99 in 10.0 mi ESE 5.8 mph - N/A   Mostly Cloudy
4:55 PM 82.4 °F 84.6 °F 66.2 °F 58% 29.98 in - ESE 8.1 mph - N/A   Mostly Cloudy
5:15 PM 82.4 °F 84.6 °F 66.2 °F 58% 29.98 in 10.0 mi East 5.8 mph - N/A   Scattered Clouds
5:35 PM 82.4 °F 84.6 °F 66.2 °F 58% 29.98 in 10.0 mi ESE 5.8 mph - N/A   Clear
5:55 PM 80.6 °F 83.2 °F 68.0 °F 65% 29.98 in 10.0 mi East 5.8 mph - N/A   Clear
6:15 PM 80.6 °F 83.2 °F 68.0 °F 65% 29.99 in 10.0 mi ESE 4.6 mph - N/A   Scattered Clouds
6:35 PM 80.6 °F 83.9 °F 69.8 °F 70% 29.98 in 10.0 mi ESE 4.6 mph - N/A   Clear
6:55 PM 78.8 °F - 68.0 °F 69% 29.99 in 10.0 mi SE 5.8 mph - N/A   Clear
7:15 PM 78.8 °F - 69.8 °F 74% 29.98 in 10.0 mi ESE 5.8 mph - N/A   Clear
7:35 PM 77.0 °F - 68.0 °F 74% 29.98 in 10.0 mi ESE 3.5 mph - N/A   Clear
7:55 PM 77.0 °F - 69.8 °F 78% 29.98 in 10.0 mi ESE 4.6 mph - N/A   Clear
8:15 PM 75.2 °F - 69.8 °F 83% 29.97 in 10.0 mi ESE 4.6 mph - N/A   Clear
8:35 PM 73.4 °F - 71.6 °F 94% 29.96 in - ESE 5.8 mph - N/A   Unknown
8:55 PM 73.4 °F - 69.8 °F 88% 29.96 in 10.0 mi East 8.1 mph - N/A   Scattered Clouds
9:15 PM 75.2 °F - 69.8 °F 83% 29.96 in 10.0 mi ESE 9.2 mph - N/A   Scattered Clouds
9:35 PM 75.2 °F - 68.0 °F 78% 29.98 in - ESE 11.5 mph - N/A   Scattered Clouds
9:55 PM 73.4 °F - 68.0 °F 83% 29.99 in 10.0 mi ESE 9.2 mph - N/A   Mostly Cloudy
10:15 PM 73.4 °F - 66.2 °F 78% 29.99 in 10.0 mi SE 6.9 mph - N/A   Scattered Clouds
10:35 PM 71.6 °F - 69.8 °F 94% 29.99 in 10.0 mi SE 6.9 mph - N/A Rain Light Rain
10:55 PM 69.8 °F - 69.8 °F 100% 29.98 in 10.0 mi ESE 3.5 mph - N/A Rain Light Rain
11:15 PM 69.8 °F - 69.8 °F 100% 29.97 in 10.0 mi Calm Calm - N/A   Clear
11:35 PM 69.8 °F - 69.8 °F 100% 29.97 in 10.0 mi SE 3.5 mph - N/A   Scattered Clouds
11:55 PM 69.8 °F - 69.8 °F 100% 29.97 in 10.0 mi Calm Calm - N/A   Clear